Location: ??? ????
(38.0580°N, 23.1536°E)
Time: 13:02:53
(UTC+00:00)

Cosmos 2263 Rocket - Pass Details

Date: 13 December 2025
Orbit: 821 x 849 km, 71.0° (Epoch: 17 January)

Event Time Altitude Azimuth Distance (km) Brightness Sun altitude
Rises 16:06:01 0° 342° (NNW) 3,408 5.3 -11.1°
Reaches altitude 10° 16:08:33 10° 348° (NNW) 2,473 4.5 -11.6°
Maximum altitude 16:14:04 50° 64° (ENE) 1,065 2.3 -12.6°
Drops below altitude 10° 16:19:34 10° 139° (SE) 2,466 4.4 -13.6°
Sets 16:22:05 0° 145° (SE) 3,397 5.2 -14.1°
